Wind_Speed
9 8 8 7 7 7 6 6 6 6 6 6 7 7 7 7 8 8 8 9 9 9 9 10 9 9 9 7 6 7 6 4 6 8 8 8 9 11 14 15 17 19 17 16 15
12 11 11 10 9 9 9 8 8 9 9 9 9 10 10 10 10 10 11 11 10 10 10 9 8 8 7 7 8 8 8 6 6 10 9 10 12 16 18 15 15 17 18 20 19
15 14 13 13 12 11 11 11 11 11 12 12 12 12 11 11 11 11 9 6 5 5 6 7 8 10 11 13 13 12 10 9 9 11 11 11 12 15 17 17 19 15 12 13 16
18 16 15 14 14 14 14 14 14 14 14 14 13 13 12 11 7 6 7 10 11 12 13 13 13 14 13 13 13 12 8 8 8 10 12 14 16 15 17 14 9 11 11 11 13
20 19 17 17 16 17 17 17 16 16 16 15 15 15 15 14 12 14 15 15 15 14 14 13 13 12 11 10 12 16 14 14 13 12 13 15 15 15 5 6 5 10 14 18 17
22 21 20 19 19 19 19 19 19 18 17 17 17 17 17 16 15 14 14 14 14 14 14 15 16 15 16 16 17 19 19 18 15 12 17 12 8 10 10 8 10 17 20 20 23
25 23 23 22 22 22 21 21 20 20 19 19 19 19 19 16 16 17 16 16 17 18 18 18 18 17 18 18 19 16 17 19 19 7 9 12 14 11 11 14 20 23 24 22 21
27 26 25 25 25 24 23 22 21 21 21 20 21 21 21 20 19 18 18 19 19 19 20 20 19 19 21 21 21 20 19 16 7 13 13 15 18 13 14 22 24 27 24 20 19
29 28 27 27 27 26 24 23 23 23 22 22 22 23 23 23 22 20 19 19 19 20 21 20 19 20 21 20 18 15 13 15 17 16 14 15 20 19 20 23 26 21 19 19 19
31 30 30 29 28 27 26 25 24 25 24 24 25 22 21 21 19 18 17 17 18 19 19 18 19 20 22 19 19 13 16 19 21 19 18 21 25 24 21 19 15 17 18 21 24
33 31 31 31 30 27 27 26 26 27 27 25 22 19 17 21 23 22 21 22 22 22 21 20 21 22 18 17 18 21 22 23 24 21 25 25 27 14 7 14 20 22 23 25 26
33 32 31 31 31 29 28 27 26 27 28 27 26 27 27 27 27 26 26 27 27 26 25 27 30 23 22 21 22 24 25 27 24 19 21 24 18 14 20 18 17 22 26 25 18
35 33 32 33 33 31 29 26 25 24 29 34 32 34 33 32 33 33 33 34 34 34 33 33 28 24 22 22 25 26 27 24 22 19 19 18 22 18 18 17 25 19 18 17 14
35 35 34 35 35 31 28 24 21 21 23 32 37 38 36 36 41 38 39 40 39 35 30 25 25 27 27 29 25 25 22 22 20 15 9 8 7 12 21 25 19 17 15 14 15
37 36 35 36 35 31 24 22 20 17 6 11 19 23 20 25 29 26 33 38 34 31 29 20 12 13 23 24 21 20 12 9 12 14 18 20 15 10 16 19 17 17 16 14 15
39 37 38 39 36 30 27 24 21 12 13 10 13 16 22 23 23 17 15 18 18 21 23 20 14 12 9 11 14 11 11 11 15 17 6 19 21 5 15 16 16 15 13 13 17
42 39 41 38 36 31 33 28 19 17 14 18 23 23 23 22 21 19 17 18 16 17 20 16 20 17 16 16 16 18 12 3 4 2 6 6 11 21 12 16 11 9 11 15 19
40 40 44 44 37 37 36 35 19 31 40 23 16 23 25 24 24 23 21 21 22 17 9 14 8 21 22 23 19 22 22 9 7 3 4 9 10 9 21 19 19 17 17 17 15
39 42 47 47 46 47 38 42 35 38 29 39 25 26 29 26 18 24 25 25 22 19 13 14 13 14 20 21 25 17 24 24 17 11 4 11 17 16 16 18 21 17 15 14 14
48 51 56 59 50 47 54 62 50 40 31 32 37 28 35 33 28 21 23 19 26 22 22 16 10 16 18 22 23 27 15 10 14 2 5 7 13 17 9 18 22 18 14 15 15
41 40 60 56 49 52 58 53 51 44 36 36 39 34 29 34 34 32 19 21 19 20 22 26 21 12 18 21 27 25 26 18 17 22 6 2 10 12 11 16 18 15 15 17 18
39 37 46 49 55 58 55 59 54 41 41 38 37 41 36 31 32 33 32 28 17 22 21 20 14 21 28 26 27 31 31 31 25 13 17 16 32 16 12 14 14 19 23 22 20
33 34 38 43 47 53 50 48 49 42 44 48 48 42 37 39 27 30 36 29 31 28 21 24 17 15 13 21 26 32 36 37 40 37 29 14 16 18 17 17 19 22 25 24 30
30 36 40 39 49 50 54 49 40 36 40 47 47 45 46 38 30 17 33 31 29 29 28 27 31 28 28 17 11 26 39 36 36 26 27 40 37 33 31 27 26 26 31 38 41
37 40 40 37 45 36 38 28 26 35 37 41 43 48 42 36 35 38 35 33 31 28 26 31 36 35 40 40 33 31 30 31 35 43 36 38 34 37 32 31 38 43 41 41 34
49 46 46 46 44 31 36 33 33 30 38 43 46 45 49 43 39 37 39 37 31 26 27 32 36 33 36 36 34 38 42 35 31 31 35 36 44 42 46 45 40 41 36 34 39
52 48 45 44 52 40 39 41 36 36 45 47 47 37 43 46 39 30 28 28 24 25 28 30 34 28 27 30 28 29 46 44 44 48 46 47 50 43 39 37 35 31 37 40 40
Wind_Direction
228 232 231 237 234 240 243 247 253 259 268 272 276 279 281 279 278 275 275 276 277 273 273 276 278 280 282 285 283 284 284 249 240 235 238 252 259 285 294 304 309 313 297 285 283
241 242 244 243 244 248 250 255 260 266 271 274 276 278 279 281 281 281 281 281 273 267 266 267 264 268 276 287 290 286 282 281 258 249 253 268 281 288 288 293 296 294 295 293 287
245 246 247 249 249 249 254 259 265 270 272 275 276 278 279 282 284 285 280 267 260 256 260 264 268 276 282 287 286 284 281 273 269 265 270 278 280 283 292 302 296 302 290 290 279
246 246 248 250 255 259 262 265 268 271 273 274 275 276 279 279 287 270 264 269 270 274 277 275 276 278 282 282 282 282 280 269 271 276 281 282 283 284 286 279 282 288 294 301 298
246 246 247 250 254 260 264 266 267 268 269 270 273 276 278 278 272 270 272 274 275 275 274 277 282 284 281 278 282 284 283 283 280 285 278 279 286 284 269 300 264 268 303 306 292
244 247 250 252 256 260 263 265 266 266 268 272 275 276 275 280 275 270 270 270 268 267 265 268 275 278 277 278 279 284 290 292 293 292 284 274 255 283 282 289 275 294 298 288 281
244 246 250 253 256 259 261 264 266 268 270 273 273 274 273 270 269 269 268 265 264 264 263 265 268 270 274 277 275 280 285 287 297 271 273 271 276 288 281 288 295 301 300 294 288
244 247 250 253 254 257 261 264 266 267 268 268 270 270 272 270 267 266 265 263 262 262 261 260 260 262 264 269 274 281 287 296 257 286 281 277 283 282 280 292 296 297 295 293 291
246 247 249 252 256 257 258 260 262 263 264 264 264 268 271 271 270 265 263 261 260 260 261 261 259 258 264 265 273 273 271 284 289 291 279 277 279 288 292 297 293 288 289 293 298
245 249 251 252 254 256 258 258 260 261 260 263 263 266 263 267 267 267 265 262 259 256 254 253 254 257 260 260 259 271 271 275 280 286 278 276 284 292 299 286 284 285 281 289 296
246 247 250 253 253 253 254 255 258 262 260 260 255 255 251 261 267 267 265 263 261 258 253 251 246 252 272 277 275 272 270 270 275 280 280 283 292 300 259 275 285 286 281 283 290
243 244 247 250 252 252 253 255 259 263 265 262 258 256 261 264 264 264 264 261 259 257 255 255 257 272 270 263 259 261 264 266 277 282 286 290 288 286 287 277 278 275 275 279 285
242 242 244 247 249 250 251 254 257 262 270 265 263 263 264 262 261 259 258 257 257 256 258 261 267 270 265 257 254 255 258 266 277 282 284 283 286 282 277 276 288 271 263 271 279
240 241 242 245 247 248 250 250 253 267 279 272 271 264 259 254 254 253 251 251 254 257 263 267 265 259 254 250 248 253 262 269 270 269 256 264 280 263 275 278 263 250 260 266 280
241 241 239 243 247 245 245 243 252 263 281 264 237 252 249 237 245 248 248 250 250 256 249 256 254 242 240 244 239 254 250 237 249 257 268 267 269 246 250 249 234 248 257 261 272
240 240 238 238 239 238 232 238 238 222 244 236 217 232 237 232 230 233 227 223 229 230 239 230 226 227 207 194 195 214 229 255 269 270 263 269 238 245 228 227 243 237 242 256 264
237 238 241 240 241 235 233 229 200 213 232 239 234 232 231 224 216 220 223 215 202 197 219 217 216 216 209 208 214 211 222 271 295 229 232 247 220 236 221 210 210 217 243 253 258
238 235 239 238 236 233 230 208 213 244 231 234 216 222 225 221 221 220 215 211 206 202 186 201 213 216 225 226 229 220 228 207 224 211 256 220 238 234 226 228 233 233 229 239 252
235 240 240 241 244 236 216 204 218 234 234 222 226 219 215 214 217 215 214 218 217 214 211 206 222 217 228 232 227 222 219 236 257 283 296 243 259 253 222 233 247 224 233 236 242
238 239 242 240 234 242 228 218 232 229 228 229 227 223 217 212 211 208 213 227 220 220 229 233 233 238 232 229 227 227 233 203 209 282 255 247 255 244 237 238 230 234 222 231 239
233 244 233 239 233 225 219 221 228 229 219 220 223 220 222 216 218 215 218 224 217 228 228 231 238 237 226 220 230 227 229 223 227 231 191 254 255 262 239 242 212 218 241 254 261
231 240 232 233 220 227 221 224 227 229 215 210 216 218 218 217 216 222 232 235 227 236 240 239 238 239 244 239 241 242 245 243 231 241 232 249 262 254 240 225 234 265 269 261 268
230 237 239 225 217 217 220 221 224 222 220 215 216 214 215 212 222 225 233 229 235 240 250 243 230 237 250 238 234 235 240 242 245 244 238 225 253 259 254 249 254 259 261 258 286
247 234 221 210 211 222 216 213 216 209 210 224 223 217 219 218 215 219 223 227 233 242 246 243 241 235 236 239 241 237 244 241 234 233 239 242 252 260 270 270 272 259 266 284 292
237 225 218 206 210 219 224 235 239 240 240 232 228 226 218 215 218 226 229 234 241 249 251 238 239 244 248 254 256 257 258 256 248 251 242 256 257 264 261 267 276 280 284 286 285
220 225 238 244 237 240 241 237 246 249 244 239 233 238 238 227 226 230 236 241 247 256 259 244 237 245 252 252 250 253 256 251 246 242 246 251 258 266 273 279 279 279 280 280 288
221 229 242 243 235 241 244 240 253 253 248 248 251 241 249 242 239 241 243 242 241 249 245 243 236 240 245 250 252 259 253 255 260 262 263 263 272 277 275 272 271 270 279 284 288
Height
3171 3172 3172 3173 3174 3174 3175 3175 3175 3175 3175 3175 3175 3175 3175 3175 3175 3175 3175 3175 3175 3174 3174 3174 3174 3174 3174 3174 3174 3174 3175 3174 3175 3174 3175 3175 3175 3175 3174 3175 3174 3172 3171 3170 3169
3169 3170 3171 3171 3171 3172 3172 3172 3173 3173 3173 3173 3173 3173 3173 3173 3173 3173 3173 3172 3172 3172 3172 3172 3172 3172 3172 3172 3172 3173 3173 3173 3173 3173 3174 3174 3174 3173 3172 3173 3172 3170 3168 3166 3166
3166 3167 3168 3169 3169 3169 3169 3169 3170 3170 3170 3171 3171 3171 3171 3171 3171 3170 3170 3170 3170 3170 3170 3170 3171 3171 3171 3171 3171 3170 3171 3171 3171 3171 3171 3172 3171 3170 3169 3169 3167 3167 3165 3163 3162
3162 3163 3165 3166 3166 3166 3167 3167 3167 3167 3168 3168 3168 3169 3169 3169 3171 3168 3168 3168 3169 3168 3168 3168 3168 3168 3168 3168 3168 3168 3168 3169 3169 3169 3169 3168 3168 3167 3167 3166 3166 3163 3162 3161 3160
3158 3159 3161 3161 3162 3163 3163 3164 3164 3164 3165 3165 3165 3165 3166 3166 3167 3165 3165 3165 3166 3166 3166 3166 3165 3166 3165 3166 3165 3164 3166 3166 3166 3166 3165 3165 3165 3163 3164 3164 3162 3161 3160 3159 3158
3153 3155 3156 3157 3158 3158 3159 3160 3161 3161 3161 3162 3161 3162 3161 3163 3162 3162 3162 3162 3162 3163 3163 3163 3163 3163 3162 3162 3162 3161 3161 3161 3161 3162 3161 3161 3161 3161 3162 3162 3159 3158 3156 3156 3154
3148 3149 3151 3153 3153 3154 3155 3156 3156 3157 3157 3158 3158 3157 3157 3159 3158 3158 3158 3158 3158 3158 3159 3159 3159 3160 3159 3159 3157 3157 3157 3157 3157 3156 3157 3157 3158 3159 3159 3157 3155 3152 3151 3150 3149
3142 3144 3146 3147 3147 3149 3150 3151 3151 3152 3153 3153 3153 3153 3152 3153 3153 3153 3154 3154 3154 3153 3154 3154 3155 3155 3155 3155 3155 3154 3154 3154 3154 3154 3154 3154 3155 3156 3156 3152 3150 3147 3145 3144 3143
3136 3138 3139 3140 3142 3143 3145 3146 3146 3147 3148 3148 3148 3148 3148 3148 3148 3148 3148 3149 3149 3149 3149 3150 3151 3151 3151 3152 3153 3151 3151 3151 3152 3150 3150 3150 3148 3151 3151 3148 3144 3142 3140 3139 3139
3129 3131 3133 3134 3135 3138 3139 3140 3140 3141 3142 3142 3142 3145 3143 3144 3143 3144 3144 3144 3145 3145 3146 3146 3146 3146 3147 3148 3148 3148 3147 3147 3147 3147 3145 3145 3143 3145 3146 3140 3139 3138 3136 3135 3134
3122 3124 3126 3128 3129 3132 3134 3135 3137 3137 3136 3137 3137 3136 3137 3138 3139 3139 3139 3139 3140 3140 3140 3140 3141 3140 3143 3144 3144 3143 3142 3142 3143 3145 3140 3140 3138 3139 3140 3137 3135 3134 3133 3132 3131
3115 3117 3119 3121 3123 3125 3127 3128 3130 3130 3128 3129 3129 3130 3131 3131 3132 3133 3134 3134 3134 3134 3134 3135 3132 3139 3138 3139 3138 3138 3137 3136 3138 3139 3136 3134 3134 3134 3132 3132 3131 3130 3128 3127 3127
3107 3110 3112 3113 3115 3119 3121 3124 3125 3124 3122 3120 3121 3121 3123 3125 3124 3125 3127 3125 3125 3126 3128 3127 3131 3132 3133 3132 3132 3132 3131 3133 3134 3133 3131 3130 3128 3128 3127 3126 3124 3123 3123 3124 3124
3099 3102 3104 3106 3109 3112 3116 3119 3120 3120 3116 3109 3110 3106 3111 3113 3112 3115 3116 3118 3116 3119 3123 3120 3123 3123 3124 3125 3127 3127 3129 3129 3129 3130 3128 3127 3122 3122 3120 3119 3118 3118 3119 3120 3120
3091 3094 3095 3097 3101 3105 3112 3113 3115 3118 3113 3101 3097 3099 3101 3105 3102 3104 3106 3106 3109 3112 3116 3117 3117 3117 3116 3118 3123 3124 3125 3126 3126 3126 3124 3125 3122 3111 3114 3113 3113 3115 3116 3117 3117
3082 3086 3087 3086 3092 3099 3102 3106 3110 3114 3097 3090 3091 3092 3095 3096 3097 3099 3100 3102 3104 3106 3107 3111 3113 3114 3115 3117 3119 3121 3123 3124 3122 3122 3119 3116 3118 3107 3107 3109 3109 3110 3112 3114 3115
3072 3076 3078 3079 3086 3091 3093 3096 3100 3092 3085 3082 3084 3088 3089 3091 3092 3093 3096 3096 3097 3101 3102 3106 3108 3110 3112 3114 3115 3117 3121 3122 3122 3120 3112 3110 3110 3103 3104 3104 3106 3107 3109 3110 3111
3060 3063 3067 3072 3078 3078 3080 3083 3078 3066 3074 3075 3078 3082 3084 3086 3088 3089 3091 3092 3093 3095 3097 3100 3105 3106 3108 3109 3111 3110 3114 3117 3119 3119 3109 3108 3101 3097 3099 3102 3102 3102 3103 3103 3104
3049 3051 3053 3057 3066 3069 3067 3063 3053 3058 3067 3070 3074 3075 3078 3080 3084 3084 3085 3085 3088 3090 3094 3095 3097 3099 3103 3105 3108 3106 3106 3112 3111 3110 3109 3101 3096 3095 3098 3100 3102 3101 3099 3099 3099
3037 3038 3040 3047 3055 3056 3050 3044 3045 3051 3057 3062 3065 3068 3068 3072 3075 3078 3079 3078 3081 3085 3087 3089 3093 3095 3097 3100 3102 3101 3102 3104 3108 3114 3112 3091 3088 3086 3090 3092 3096 3100 3102 3097 3093
3023 3023 3024 3036 3044 3037 3030 3034 3038 3043 3048 3052 3056 3060 3062 3064 3067 3068 3070 3073 3076 3079 3081 3084 3088 3090 3089 3092 3095 3097 3094 3097 3099 3097 3096 3094 3078 3077 3080 3086 3088 3091 3096 3099 3097
3012 3011 3013 3021 3025 3018 3023 3026 3029 3030 3037 3040 3046 3051 3054 3057 3060 3064 3063 3067 3070 3072 3077 3079 3080 3079 3082 3083 3088 3091 3087 3090 3091 3090 3088 3086 3073 3078 3079 3082 3083 3083 3086 3089 3089
3000 3002 3003 3005 3005 3007 3013 3016 3020 3022 3027 3031 3035 3040 3043 3048 3051 3054 3059 3061 3064 3065 3068 3074 3072 3074 3077 3078 3078 3080 3080 3080 3080 3079 3077 3084 3071 3075 3076 3078 3080 3079 3078 3079 3080
2995 2996 2996 2996 2995 3000 3005 3005 3010 3016 3019 3020 3026 3029 3033 3035 3041 3044 3049 3055 3057 3057 3062 3067 3065 3062 3062 3065 3067 3071 3070 3070 3071 3070 3070 3064 3068 3071 3072 3073 3072 3073 3073 3071 3069
2986 2983 2986 2986 2989 2995 2998 3000 3003 3007 3012 3014 3017 3019 3024 3028 3032 3034 3040 3045 3049 3051 3056 3059 3057 3057 3059 3059 3062 3063 3063 3060 3061 3063 3062 3060 3060 3063 3066 3067 3065 3064 3063 3062 3060
2974 2976 2978 2982 2985 2987 2991 2992 2997 3001 3004 3005 3009 3013 3017 3018 3023 3027 3031 3034 3038 3042 3046 3049 3049 3051 3053 3054 3053 3053 3054 3052 3053 3054 3053 3055 3050 3057 3059 3058 3055 3053 3051 3050 3050
2961 2962 2969 2970 2973 2976 2977 2983 2987 2994 2994 2998 3003 3004 3008 3012 3017 3019 3021 3026 3028 3032 3036 3042 3042 3043 3043 3046 3046 3044 3036 3041 3042 3043 3047 3045 3045 3050 3049 3046 3043 3042 3041 3041 3040